Weather History for Destin, FL

Change the Weather History Date:

Monday, April 22, 2013

  Actual Average Record
Temperature  
Mean Temperature 68 °F -  
Max Temperature 73 °F 74 °F 81 °F (2002)
Min Temperature 64 °F 59 °F 53 °F (1998)
Cooling Degree Days 4    
Growing Degree Days 18 (Base 50)    
Moisture  
Dew Point 56 °F    
Average Humidity 68    
Maximum Humidity 75    
Minimum Humidity 57    
Precipitation  
Precipitation 0.00 in - - ()
Sea Level Pressure  
Sea Level Pressure 30.11 in    
Wind  
Wind Speed 6 mph (ENE)    
Max Wind Speed 12 mph    
Max Gust Speed 17 mph    
Visibility 10 miles    
Events      
Averages and records for this station are not official NWS values.
T = Trace of Precipitation, MM = Missing Value Source: NWS Daily Summary

Daily Weather History Graph

Daily Weather History Graph

Search for Another Location

Airport:

Trip Planner

Search our weather history database for the weather conditions in past years. The results will help you decide how hot, cold, wet, or windy it might be!

Date:

Astronomy

Apr. 22, 2013 Rise Set
Actual Time 6:10 AM CDT 7:18 PM CDT
Civil Twilight 5:45 AM CDT 7:43 PM CDT
Nautical Twilight 5:16 AM CDT 8:12 PM CDT
Astronomical Twilight 4:45 AM CDT 8:43 PM CDT
Moon 4:18 PM CDT (4/22) 3:51 AM CDT (4/22)
Length of Visible Light 13h 57m
Length of Day
13h 07m
Waxing Gibbous, 88% of the Moon is Illuminated
Apr 22
Waxing Gibbous
Apr 25
Full
May 2
Last Quarter
May 9
New
May 17
First Quarter

Hourly Weather History & Observations

Time (CDT) Temp. Dew Point Humidity Pressure Visibility Wind Dir Wind Speed Gust Speed Precip Events Conditions
12:53 AM 64.9 °F 52.0 °F 63% 30.11 in 10.0 mi ENE 3.5 mph - N/A   Partly Cloudy
1:53 AM 66.0 °F 55.0 °F 68% 30.11 in 10.0 mi NNE 5.8 mph - N/A   Overcast
2:53 AM 64.9 °F 52.0 °F 63% 30.09 in 10.0 mi ENE 4.6 mph - N/A   Overcast
3:53 AM 66.0 °F 54.0 °F 65% 30.09 in 10.0 mi ENE 6.9 mph - N/A   Overcast
4:12 AM 66.2 °F 55.4 °F 68% 30.09 in 10.0 mi ENE 5.8 mph - N/A   Overcast
4:35 AM 66.2 °F 55.4 °F 68% 30.09 in 10.0 mi East 9.2 mph - N/A   Overcast
4:53 AM 66.0 °F 57.0 °F 73% 30.09 in 10.0 mi East 9.2 mph - N/A   Overcast
5:27 AM 66.2 °F 55.4 °F 68% 30.09 in 10.0 mi East 10.4 mph - N/A   Overcast
5:53 AM 64.9 °F 55.9 °F 73% 30.10 in 10.0 mi East 8.1 mph - N/A   Overcast
6:12 AM 64.4 °F 55.4 °F 73% 30.11 in 10.0 mi East 5.8 mph - N/A   Overcast
6:34 AM 64.4 °F 55.4 °F 73% 30.12 in 10.0 mi East 5.8 mph - N/A   Overcast
6:53 AM 64.9 °F 55.9 °F 73% 30.12 in 10.0 mi ENE 4.6 mph - N/A   Overcast
7:53 AM 64.0 °F 55.9 °F 75% 30.14 in 10.0 mi NE 5.8 mph - N/A   Overcast
8:53 AM 66.0 °F 55.9 °F 70% 30.14 in 10.0 mi East 9.2 mph - N/A   Overcast
9:53 AM 66.0 °F 57.0 °F 73% 30.16 in 10.0 mi East 9.2 mph - N/A   Overcast
10:53 AM 68.0 °F 57.9 °F 70% 30.16 in 10.0 mi ENE 8.1 mph - N/A   Overcast
11:53 AM 69.1 °F 57.9 °F 68% 30.15 in 10.0 mi East 11.5 mph 16.1 mph N/A   Overcast
12:53 PM 69.1 °F 57.9 °F 68% 30.13 in 10.0 mi East 8.1 mph - N/A   Overcast
1:53 PM 70.0 °F 57.9 °F 65% 30.12 in 10.0 mi ENE 5.8 mph - N/A   Overcast
2:53 PM 73.0 °F 59.0 °F 61% 30.10 in 10.0 mi East 11.5 mph - N/A   Overcast
3:32 PM 73.4 °F 57.2 °F 57% 30.09 in 10.0 mi ENE 10.4 mph 17.3 mph N/A   Scattered Clouds
3:53 PM 73.0 °F 59.0 °F 61% 30.09 in 10.0 mi ENE 9.2 mph - N/A   Clear
4:53 PM 72.0 °F 57.9 °F 61% 30.09 in 10.0 mi East 8.1 mph - N/A   Mostly Cloudy
5:53 PM 72.0 °F 57.9 °F 61% 30.08 in 10.0 mi East 8.1 mph 16.1 mph N/A   Overcast
6:53 PM 70.0 °F 57.9 °F 65% 30.08 in 10.0 mi NNE 4.6 mph - N/A   Overcast
7:53 PM 68.0 °F 57.9 °F 70% 30.09 in 10.0 mi NE 3.5 mph - N/A   Clear
8:53 PM 66.9 °F 57.9 °F 73% 30.10 in 10.0 mi Calm Calm - N/A   Clear
9:53 PM 66.9 °F 57.9 °F 73% 30.12 in 10.0 mi East 5.8 mph - N/A   Clear
10:53 PM 64.9 °F 57.0 °F 75% 30.12 in 10.0 mi East 4.6 mph - N/A   Partly Cloudy
11:53 PM 64.9 °F 55.9 °F 73% 30.11 in 10.0 mi ESE 8.1 mph - N/A   Clear